Location: Baumgartsau
(48.4586°N, 14.0864°E)
Time: 22:48:30
(UTC+00:00)

Cosmos 2218 Rocket - Pass Details

Date: 09 April 2020
Orbit: 957 x 1005 km, 82.9° (Epoch: 27 May)

Event Time Altitude Azimuth Distance (km) Brightness Sun altitude
Rises 19:09:14 0° 353° (N) 3,666 7.5 -13.6°
Reaches altitude 10° 19:11:49 10° 359° (N) 2,721 6.8 -14.0°
Maximum altitude 19:17:53 53° 75° (ENE) 1,191 4.2 -14.8°
Enters shadow 19:22:17 19° 146° (SE) 2,136 5.2 -15.4°
